ONEWEB-0245 (48778 NORAD) Tracking and Keplerian Element Data

This shows tracking and keplerian element data for the satellite.

Feedback or suggestion? Click here.




ElementValue
Catalog48778
NameONEWEB-0245
Epoch Orbit187
Epoch Day170.58334491
Epoch Year2021
RAAN268.8804
Inclination87.4072
Eccentricity0.0010233
Argument of Perigee172.4809
Mean Anonmoly226.9534
Mean Motion15.31515969
Decay Rate-0.00957997
L11 48778U 21045M 21170.58334491 -.00957997 00000-0 -34467-1 0 9997
L22 48778 87.4072 268.8804 0010233 172.4809 226.9534 15.31515969 1872

Live tracking and technical data element details for ONEWEB-0245 (NORAD 48778). ONEWEB-0245 can be tracked NOW for your location showing map with azimuth and elevation plus other details from your city location.

Track the satellite on the map from your city or location and see movement details for azimuth, elevation, latitude, longitude, range, height, and movement on the map or in text.







IsCatalogInMostPopularTable: catalog: 48778, numindb: 7
Update: records affected: 1



GetName: 48778 ONEWEB-0245

Hit Count: updated at: Mon, 21 Jun 2021 03:06:35 GMT